Home   Weather   Fauske   Past weeks

Flag for Norway Past Weather in Fauske, Norway — Yesterday and Last 2 Weeks

Now
63 °F

Partly sunny.


Feels Like: 63 °F
Forecast: 49 / 66 °F
Wind: 15 mph from Southeast

Location: Bodo Vi

Current Time: Aug 18, 2017 at 9:15:20 am

Latest Report: Aug 18, 2017 at 8:20 am


Visibility: N/A

Pressure: 29.77 "Hg

Humidity: 59%

Dew Point: 48 °F

Location of FauskeLocation

Past Weather in Fauske — Graph

°F

Fauske Temperature Yesterday

Maximum temperature yesterday: 63 °F (at 1:50 pm)
Minimum temperature yesterday: 54 °F (at 5:20 am)
Average temperature yesterday: 59 °F

High & Low Weather Summary for the Past Weeks

 TemperatureHumidityPressure
High72 °F (Aug 4, 2:50 pm)100% (Aug 3, 7:20 am)30.12 "Hg (Aug 3, 7:20 am)
Low48 °F (Aug 13, 6:20 am)50% (Aug 4, 2:50 pm)29.33 "Hg (Aug 12, 6:20 am)
Average57 °F81%29.77 "Hg
* Reported Aug 3 7:20 am — Aug 18 7:50 am, Fauske. Weather by CustomWeather, © 2017

Note: Actual official high and low records may vary slightly from our data, if they occured in-between our weather recording intervals... More about our weather records

Advertising

Fauske Weather History for the Previous 24 Hours

Scroll right to see more
 ConditionsComfort  
Time TempWeatherWind HumidityBarometerVisibility
7:50 am
Fri, Aug 18
61 °FPartly sunny.20 mph68%29.77 "HgN/A
7:20 am61 °FPartly sunny.20 mph68%29.77 "HgN/A
6:50 am59 °FPartly sunny.20 mph72%29.77 "HgN/A
6:20 am57 °FPartly sunny.18 mph77%29.80 "HgN/A
5:50 am59 °FBroken clouds.17 mph72%29.80 "HgN/A
5:20 am59 °FBroken clouds.20 mph72%29.80 "HgN/A
4:50 am59 °FBroken clouds.17 mph72%29.80 "HgN/A
3:50 am61 °FClear.17 mph68%29.80 "Hg10 mi
2:50 am61 °FClear.17 mph68%29.83 "Hg10 mi
1:50 am61 °FClear.17 mph68%29.83 "Hg10 mi
12:50 am61 °FClear.18 mph68%29.83 "Hg10 mi
11:50 pm
Thu, Aug 17
61 °FClear.14 mph68%29.83 "Hg10 mi
11:20 pm61 °FClear.14 mph68%29.86 "Hg10 mi
10:50 pm61 °FClear.14 mph68%29.86 "Hg10 mi
10:20 pm59 °FClear.14 mph72%29.86 "Hg10 mi
9:50 pm61 °FClear.14 mph68%29.86 "Hg10 mi
9:20 pm59 °FSunny.13 mph72%29.89 "Hg10 mi
8:50 pm61 °FSunny.13 mph68%29.89 "Hg10 mi
8:20 pm61 °FScattered clouds.10 mph68%29.89 "HgN/A
7:50 pm61 °FScattered clouds.6 mph68%29.89 "HgN/A
7:20 pm61 °FScattered clouds.8 mph72%29.89 "HgN/A
6:50 pm61 °FScattered clouds.12 mph72%29.89 "HgN/A
6:20 pm61 °FScattered clouds.9 mph77%29.92 "HgN/A
5:50 pm61 °FPartly sunny.13 mph72%29.92 "HgN/A
5:20 pm61 °FPartly sunny.12 mph72%29.92 "HgN/A
4:50 pm61 °FPartly sunny.12 mph72%29.95 "HgN/A
4:20 pm61 °FScattered clouds.12 mph72%29.95 "HgN/A
3:20 pm63 °FScattered clouds.10 mph59%29.98 "HgN/A
2:50 pm63 °FScattered clouds.7 mph64%29.98 "HgN/A
2:20 pm61 °FScattered clouds.6 mph68%29.98 "HgN/A
1:50 pm63 °FScattered clouds.6 mph64%29.98 "HgN/A
1:20 pm61 °FScattered clouds.5 mph63%29.98 "HgN/A
12:50 pm61 °FScattered clouds.3 mph68%29.98 "HgN/A
12:20 pm61 °FPassing clouds.2 mph68%29.98 "HgN/A
11:50 am59 °FPassing clouds.6 mph68%29.98 "HgN/A
11:20 am61 °FScattered clouds.7 mph63%30.01 "HgN/A
10:50 am59 °FScattered clouds.7 mph72%29.98 "HgN/A
10:20 am59 °FScattered clouds.9 mph72%29.98 "HgN/A
9:20 am57 °FScattered clouds.12 mph77%29.98 "HgN/A
Weather by CustomWeather, © 2017

See weather overviewHow to use our weather pages